www.pogodaiklimat.ru

Погода и климат >> Архив погоды >> Россия >> Волгоградская область >> Волгоград город


ПОГОДА в Волгограде город

  • Прогноз погоды в Волгограде город
  • Монитор погоды в Волгограде город
  • Климат города

АРХИВ ПОГОДЫ в Волгограде город

Время (UTC), дата Ветер
(напр.,м/с)
 
Видим.   Явления Облачность Т
(С)
Тd
(С)
f
(%)
Тe
(С)
Тes
(С)
Комфортность P
(гПа)
Po
(гПа)
Тmin
(С)
Tmax
(С)
R
(мм)
R24
(мм)
S
(см)
06 17.08 СВ 2 10 км ясно +25.5 +4.5 26 +25 +33 комфорт 1018.9 1005.6
09 17.08 В 2 10 км 1/1 2000 м
[Cu med, cong]
+32.4 +2.1 15 +30 +43 жарко 1017.9 1004.9
12 17.08 В 3 10 км 3/3 2000 м
[Cu med, cong]
+33.6 -0.5 11 +30 +35 жарко 1016.6 1003.6
15 17.08 В 1 10 км 4/0
[Ac As Ci]
+30.8 +0.5 14 +28 +28 жарко 1016.8 1003.7 +33.9
18 17.08 ЮВ 1 10 км ясно +26.9 +3.3 22 +26 +26 жарко 1018.1 1004.8
21 17.08 штиль 0 10 км ясно +22.2 +3.8 30 +22 +22 комфорт 1018.7 1005.2
00 18.08 С 1 10 км ясно +21.1 +5.8 37 +22 +22 комфорт 1018.8 1005.3
03 18.08 СВ 3 10 км ясно +21.2 +10.0 49 +23 +23 комфорт 1019.3 1005.8 +20.7
06 18.08 СВ 2 10 км 8/0
[Ac lent Ci fib]
+23.7 +7.7 36 +24 +29 комфорт 1019.8 1006.4
09 18.08 СВ 3 10 км 3/0
[Ac lent]
+31.2 +7.5 23 +30 +39 жарко 1019.2 1006.1
12 18.08 ЮВ 2 10 км 6/3 1000 м
[Cu hum Ac As Ci fib]
+33.6 +0.6 12 +30 +35 жарко 1018.0 1005.1
15 18.08 СВ 5-10
{11}
10 км 8/0
[Ac lent Ci fib]
+29.0 +5.2 22 +28 +28 жарко 1018.6 1005.5 +33.8
18 18.08 В 3
{11}
10 км 3/0
[Ac As Ci fib]
+26.2 +6.1 28 +26 +26 жарко 1020.1 1006.8
21 18.08 СВ 2 10 км 8/0
[Ac trans]
+25.3 +5.7 28 +25 +25 комфорт 1019.4 1006.1
00 19.08 СВ 3 10 км 5/0
[Ac trans]
+23.4 +8.4 38 +25 +25 комфорт 1019.8 1006.4
03 19.08 СВ 3 10 км 8/0
[Ac lent Ci fib]
+22.0 +8.3 41 +23 +23 комфорт 1020.3 1006.8 +21.9
06 19.08 СВ 3 10 км 8/0
[Ac cast Cc]
+25.7 +7.0 30 +26 +30 жарко 1020.7 1007.3
09 19.08 СВ 3 10 км 3/1 1500 м
[Cu hum Ac cast Ci fib]
+31.7 +5.8 20 +30 +39 жарко 1019.8 1006.7
12 19.08 В 2 10 км 4/3 1500 м
[Cu med, cong Ci fib]
+33.3 +3.0 15 +30 +36 жарко 1018.8 1005.8
15 19.08 СВ 4
{12}
10 км 8/4 1500 м
[Cb cap Cc]
+29.3 +3.4 19 +27 +28 жарко 1018.9 1005.7 +33.5
18 19.08 СВ 2 10 км 8/0
[Ac cast Cc]
+26.5 +5.8 27 +26 +26 жарко 1019.9 1006.6
21 19.08 СВ 3 10 км 3/0
[Ci fib]
+25.7 +6.5 29 +25 +25 комфорт 1019.8 1006.5
00 20.08 СВ 1 10 км ясно +22.7 +7.1 37 +24 +24 комфорт 1019.9 1006.4
03 20.08 В 2 10 км 8/4 1500 м
[Sc diur, vesp Ac cast Ci fib]
+21.4 +7.5 41 +22 +23 комфорт 1020.4 1006.9 +21.4
06 20.08 В 2 10 км {ливн. осадки} 8/0
[Ac cast Ci fib]
+24.5 +9.6 39 +25 +30 комфорт 1020.6 1007.2 +20.8
09 20.08 В 3 10 км 3/0
[Ci fib]
+31.8 +3.4 17 +29 +40 жарко 1019.6 1006.6
12 20.08 В 3 10 км 8/6 1500 м
[Sc diur, vesp Ac lent]
+31.6 +2.8 16 +29 +31 жарко 1018.6 1005.5
15 20.08 Ю 2
{10}
10 км 8/8 1500 м
[Sc diur, vesp Ac lent]
+29.3 +4.1 20 +27 +28 жарко 1018.9 1005.7 +33.6 0.0
18 20.08 Ю 1 10 км 3/0
[Ci fib]
+26.3 +5.6 27 +26 +26 жарко 1020.2 1006.9
21 20.08 ЮВ 1 10 км ясно +26.5 +4.6 24 +25 +25 комфорт 1019.4 1006.1
00 21.08 В 2 10 км 8/0
[Ac lent Ci fib]
+24.6 +7.1 33 +25 +25 комфорт 1019.4 1006.1
03 21.08 СВ 1 10 км 9/0
[Ac lent]
+24.3 +5.3 29 +24 +24 комфорт 1019.3 1005.9 +23.9
06 21.08 СВ 2 10 км 6/0
[Ac As Ci]
+27.3 +7.0 28 +27 +33 жарко 1018.3 1005.1
09 21.08 В 3 10 км 3/0
[Ac As]
+31.8 +4.5 18 +30 +39 жарко 1017.2 1004.2
12 21.08 ЮВ 2 10 км 3/0
[Ac As]
+32.9 -0.1 12 +30 +36 жарко 1015.4 1002.5
15 21.08 В 1 10 км ясно +30.4 -0.3 14 +27 +28 жарко 1014.5 1001.4 +33.3
18 21.08 ЮВ 1 10 км ясно +27.0 +2.2 20 +25 +25 комфорт 1014.9 1001.7
21 21.08 В 2 10 км ясно +24.4 +4.0 27 +24 +24 комфорт 1015.1 1001.8
00 22.08 СВ 1 10 км ясно +20.9 +1.9 28 +22 +22 комфорт 1014.7 1001.2
03 22.08 В 1 10 км ясно +20.8 +3.1 31 +22 +23 комфорт 1014.6 1001.1 +19.5
06 22.08 В 2 10 км ясно +24.7 +3.9 26 +24 +32 комфорт 1014.2 1000.9
09 22.08 В 3 10 км ясно +30.6 -0.1 14 +28 +39 жарко 1012.7 999.7
12 22.08 В 3
{10}
10 км ясно +32.8 -0.0 12 +29 +36 жарко 1010.8 997.9
15 22.08 В 2 10 км ясно +30.9 +2.2 16 +28 +29 жарко 1009.9 996.9 +33.5
18 22.08 Ю 1 10 км 4/0
[Ci fib]
+26.6 +5.1 25 +26 +26 жарко 1011.1 997.9
21 22.08 Ю 1 10 км 4/0
[Ci fib]
+26.1 +0.6 19 +24 +24 комфорт 1011.4 998.2
00 23.08 В 1 10 км 10/0
[Ac trans Ci fib]
+23.4 +2.8 26 +23 +23 комфорт 1011.0 997.6
03 23.08 В 2 10 км 10/0
[Ac trans Ci fib]
+21.1 +3.9 32 +21 +21 комфорт 1010.9 997.5 +21.1
06 23.08 ЮВ 2 10 км 8/0
[Ac As Cc]
+24.2 +8.6 37 +25 +29 комфорт 1011.0 997.8 +21.1
09 23.08 Ю 5-13
{13}
10 км 8/0
[Ac As Cc]
+32.8 +3.3 16 +30 +34 жарко 1009.1 996.3
12 23.08 Ю 5
{18}
4000 м пыльная буря на расстоянии {метель} 10/5 2000 м
[Sc Ac As]
+33.4 -0.1 12 +30 +31 жарко 1009.0 996.1
15 23.08 Ю 6-15
{15}
4000 м пыльная буря на расстоянии {метель} 10/8 2000 м
[Sc Ac As]
+30.6 -0.3 14 +28 +28 жарко 1009.6 996.7 +34.6
18 23.08 штиль 0
{15}
10 км в посл. час ливневой дождь {метель} 10/8 600 м
[Cb cap Ac und]
+20.7 +16.0 74 +24 +24 комфорт 1012.4 999.0
21 23.08 Ю 1 10 км 6/5 300 м
[Sc diur, vesp Ac As]
+19.7 +16.3 81 +23 +23 комфорт 1013.6 1000.2
00 24.08 ЮЗ 1 10 км 8/3 300 м
[Sc diur, vesp Ac As]
+19.1 +16.4 84 +22 +22 комфорт 1014.3 1000.8
03 24.08 ЮЗ 1 4000 м дымка 10/8 300 м
[Frnb Ac und]
+18.1 +15.3 84 +19 +19 1015.4 1001.9 +18.0 0.3

 

Местоположение метеостанции Волгоград город (Волгоградская область, Россия): широта 48.67 долгота 44.45 высота над уровнем моря 116 м.

В архиве по умолчанию представлена погода в Волгограде город за последнюю неделю. Архивные данные за месяц целиком и за предыдущие месяцы, начиная с января 2011 года, Вы можете получить, выбрав интересующий диапазон дат из раскрывающегося списка и нажав кнопку "Ввод!".

Внимание! Время в таблицах - всемирное. Для получения местного времени необходимо прибавить поправку, которая в Волгограде город равна 3 ч.

Смотрите также архив погоды в соседних городах и на ближайших метеорологических станциях:

Погода в Волгограде (Волгоградская область, Россия) (14 км)
Погода в Калаче-на-Дону (Волгоградская область, Россия) (71 км)
Погода в Иловле (Волгоградская область, Россия) (77 км)
Погода в Малых Дербетах (Калмыкия, Россия) (84 км)
Погода в Нижнем Чире (Волгоградская область, Россия) (105 км)
Погода в Ольховке (Волгоградская область, Россия) (134 км)
Погода в Фролове (Волгоградская область, Россия) (138 км)
Погода в Черный Яр (Астраханская область, Россия) (140 км)
Погода в Кетченерах (Калмыкия, Россия) (150 км)
Погода в Котельниково (Волгоградская область, Россия) (151 км)

Пояснения к столбцам:

Ветер - указаны скорость ветра в м/с - средняя за 10 мин, порывы в срок и между сроками (в фигурных скобках) и направление, откуда дует ветер: С - северный, СВ - северо-восточный, В - восточный, ЮВ - юго-восточный, Ю - южный, ЮЗ - юго-западный, З - западный, СЗ - северо-западный.
Видимость - горизонтальная дальность видимости в метрах или километрах. При видимости от 1 до 10 км при отсутствии осадков обычно наблюдается дымка, при ухудшении видимости до 1 км и менее - туман. В сухую погоду видимость может ухудшаться дымом, пылью или мглою.
Явления - указаны атмосферные явления, наблюдавшиеся в срок или в последний час перед сроком; фигурными скобками обозначены явления, наблюдавшиеся между сроками (за 1-3 часа до срока); квадратными скобками обозначены град или гололедные отложения с указанием их диаметра в мм.
Облачность - указаны через наклонную черту общая и нижняя облачность в баллах и высота нижней границы облаков в метрах; квадратными скобками обозначены формы облаков: Ci - перистые, Cs - перисто-слоистые, Cc - перисто-кучевые, Ac - высококучевые, As - высокослоистые, Sc - слоисто-кучевые, Ns - слоисто-дождевые, Cu - кучевые, Cb - кучево-дождевые. Подробнее классификацию облаков см. в Атласе облаков (PDF).
T - Температура воздуха - температура, измеренная на высоте 2 м над землей.
Td - Температура точки росы - температура, при понижении до которой содержащийся в воздухе водяной пар достигнет насыщения.
f - Относительная влажность воздуха - влажноcть воздуха, измеренная на высоте 2 м над землей.
Te - Эффективная температура - температура, которую ощущает одетый по сезону человек в тени. Характеристика душности погоды. При расчете учитывается влияние влажности воздуха и скорости ветра на теплоощущения человека.
Tes - Эффективная температура на солнце - температура, которую ощущает человек, с поправкой на солнечный нагрев. Характеристика знойности погоды. Зависит от высоты солнца над горизонтом, облачности и скорости ветра. Ночью, в пасмурную погоду, а также при ветре 12 м/с и более поправка равна нулю.
P - Атмосферное давление - приведенное к уровню моря атмосферное давление.
Po - Атмосферное давление - измеренное на уровне метеостанции атмосферное давление.
Tmin - Минимальная температура - минимум температуры воздуха на высоте 2 м над землей.
Tmax - Максимальная температура - максимум температуры воздуха на высоте 2 м над землей.
R - Количество осадков - Количество выпавших осадков за период времени, мм. При наведении курсора мыши на число - период времени, за который выпало указанное количество осадков.
R24 - Количество осадков - Количество выпавших осадков за 24 часа, мм.
S - Снежный покров - Высота снежного покрова, см. При наведении курсора мыши на число - состояние снежного покрова и степень покрытия местности в баллах.